MEV-1

Last updated on Mon Sep 21 2026 00:03:01 GMT+0000 (Coordinated Universal Time)

1 44625U 19067B 26262.95193884 -.00000150 00000+0 00000+0 0 9994 2 44625 0.8071 267.9291 0004219 268.9429 320.8390 1.00272795 62490
UTC large
Height (km)
Speed (km/s)
/
Latitude / Longitude
Inclination (degrees)
Orbital Period (minutes)
Azimuth
Elevation
Range (km)
Doppler Factor

Next 0 passes for location: London (51.5072 / 0.1276)

No passes found over London.
MEV-1